[{"OBJECT_NAME":"UNKNOWN","OBJECT_ID":"","EPOCH":"2026-09-11T19:48:42.140736","MEAN_MOTION":14.2105423,"ECCENTRICITY":0.00204497,"INCLINATION":81.2087,"RA_OF_ASC_NODE":201.2647,"ARG_OF_PERICENTER":59.3386,"MEAN_ANOMALY":300.9803,"EPHEMERIS_TYPE":0,"CLASSIFICATION_TYPE":"U","NORAD_CAT_ID":270387,"ELEMENT_SET_NO":999,"REV_AT_EPOCH":17235,"BSTAR":0.00029389557,"MEAN_MOTION_DOT":0.00000651,"MEAN_MOTION_DDOT":0},{"OBJECT_NAME":"UNKNOWN","OBJECT_ID":"","EPOCH":"2026-09-08T21:48:36.292896","MEAN_MOTION":13.19769938,"ECCENTRICITY":0.04070213,"INCLINATION":82.1966,"RA_OF_ASC_NODE":124.5285,"ARG_OF_PERICENTER":17.6839,"MEAN_ANOMALY":343.7985,"EPHEMERIS_TYPE":0,"CLASSIFICATION_TYPE":"U","NORAD_CAT_ID":270388,"ELEMENT_SET_NO":999,"REV_AT_EPOCH":263,"BSTAR":-0.01686123,"MEAN_MOTION_DOT":-0.0001037,"MEAN_MOTION_DDOT":0},{"OBJECT_NAME":"UNKNOWN","OBJECT_ID":"","EPOCH":"2026-09-10T05:18:41.520960","MEAN_MOTION":12.79850708,"ECCENTRICITY":0.01552624,"INCLINATION":82.6118,"RA_OF_ASC_NODE":225.7441,"ARG_OF_PERICENTER":152.2566,"MEAN_ANOMALY":208.6928,"EPHEMERIS_TYPE":0,"CLASSIFICATION_TYPE":"U","NORAD_CAT_ID":270389,"ELEMENT_SET_NO":999,"REV_AT_EPOCH":15055,"BSTAR":0.0058266162,"MEAN_MOTION_DOT":0.00001403,"MEAN_MOTION_DDOT":0},{"OBJECT_NAME":"UNKNOWN","OBJECT_ID":"","EPOCH":"2026-09-11T02:01:26.051520","MEAN_MOTION":13.95278943,"ECCENTRICITY":0.01251682,"INCLINATION":98.8861,"RA_OF_ASC_NODE":216.3384,"ARG_OF_PERICENTER":206.2499,"MEAN_ANOMALY":153.2285,"EPHEMERIS_TYPE":0,"CLASSIFICATION_TYPE":"U","NORAD_CAT_ID":270391,"ELEMENT_SET_NO":999,"REV_AT_EPOCH":19333,"BSTAR":-0.000070779922,"MEAN_MOTION_DOT":-0.00000145,"MEAN_MOTION_DDOT":0},{"OBJECT_NAME":"UNKNOWN","OBJECT_ID":"","EPOCH":"2026-09-11T05:13:41.081376","MEAN_MOTION":14.12042521,"ECCENTRICITY":0.00421826,"INCLINATION":98.8368,"RA_OF_ASC_NODE":255.022,"ARG_OF_PERICENTER":91.604,"MEAN_ANOMALY":268.9965,"EPHEMERIS_TYPE":0,"CLASSIFICATION_TYPE":"U","NORAD_CAT_ID":270392,"ELEMENT_SET_NO":999,"REV_AT_EPOCH":18769,"BSTAR":0.00021927635,"MEAN_MOTION_DOT":0.00000362,"MEAN_MOTION_DDOT":0},{"OBJECT_NAME":"UNKNOWN","OBJECT_ID":"","EPOCH":"2026-09-08T07:22:23.886624","MEAN_MOTION":14.18121746,"ECCENTRICITY":0.00217821,"INCLINATION":81.2266,"RA_OF_ASC_NODE":210.1218,"ARG_OF_PERICENTER":2.7109,"MEAN_ANOMALY":357.418,"EPHEMERIS_TYPE":0,"CLASSIFICATION_TYPE":"U","NORAD_CAT_ID":270393,"ELEMENT_SET_NO":999,"REV_AT_EPOCH":17047,"BSTAR":0.0015856885,"MEAN_MOTION_DOT":0.00003273,"MEAN_MOTION_DDOT":0},{"OBJECT_NAME":"UNKNOWN","OBJECT_ID":"","EPOCH":"2026-09-11T07:15:37.192320","MEAN_MOTION":14.13589584,"ECCENTRICITY":0.00694202,"INCLINATION":89.0352,"RA_OF_ASC_NODE":269.4018,"ARG_OF_PERICENTER":287.0303,"MEAN_ANOMALY":72.3285,"EPHEMERIS_TYPE":0,"CLASSIFICATION_TYPE":"U","NORAD_CAT_ID":270394,"ELEMENT_SET_NO":999,"REV_AT_EPOCH":10744,"BSTAR":0.000088521484,"MEAN_MOTION_DOT":0.00000184,"MEAN_MOTION_DDOT":0},{"OBJECT_NAME":"UNKNOWN","OBJECT_ID":"","EPOCH":"2026-09-11T07:11:40.631712","MEAN_MOTION":14.56544623,"ECCENTRICITY":0.00771355,"INCLINATION":98.7828,"RA_OF_ASC_NODE":281.2074,"ARG_OF_PERICENTER":162.4521,"MEAN_ANOMALY":197.9368,"EPHEMERIS_TYPE":0,"CLASSIFICATION_TYPE":"U","NORAD_CAT_ID":270395,"ELEMENT_SET_NO":999,"REV_AT_EPOCH":12447,"BSTAR":0.0018242544,"MEAN_MOTION_DOT":0.00008411,"MEAN_MOTION_DDOT":0},{"OBJECT_NAME":"UNKNOWN","OBJECT_ID":"","EPOCH":"2026-09-11T18:42:28.946016","MEAN_MOTION":14.08234287,"ECCENTRICITY":0.0100286,"INCLINATION":89.1094,"RA_OF_ASC_NODE":276.6259,"ARG_OF_PERICENTER":308.0893,"MEAN_ANOMALY":51.1277,"EPHEMERIS_TYPE":0,"CLASSIFICATION_TYPE":"U","NORAD_CAT_ID":270396,"ELEMENT_SET_NO":999,"REV_AT_EPOCH":10742,"BSTAR":0.00026421236,"MEAN_MOTION_DOT":0.00000484,"MEAN_MOTION_DDOT":0},{"OBJECT_NAME":"UNKNOWN","OBJECT_ID":"","EPOCH":"2026-09-11T07:39:21.314016","MEAN_MOTION":14.17764234,"ECCENTRICITY":0.00717242,"INCLINATION":89.0451,"RA_OF_ASC_NODE":269.8312,"ARG_OF_PERICENTER":292.9909,"MEAN_ANOMALY":66.3724,"EPHEMERIS_TYPE":0,"CLASSIFICATION_TYPE":"U","NORAD_CAT_ID":270397,"ELEMENT_SET_NO":999,"REV_AT_EPOCH":10794,"BSTAR":0.00077464315,"MEAN_MOTION_DOT":0.00001632,"MEAN_MOTION_DDOT":0},{"OBJECT_NAME":"UNKNOWN","OBJECT_ID":"","EPOCH":"2026-09-11T09:59:53.343168","MEAN_MOTION":14.09471848,"ECCENTRICITY":0.00940676,"INCLINATION":88.8527,"RA_OF_ASC_NODE":253.362,"ARG_OF_PERICENTER":330.5994,"MEAN_ANOMALY":28.9916,"EPHEMERIS_TYPE":0,"CLASSIFICATION_TYPE":"U","NORAD_CAT_ID":270398,"ELEMENT_SET_NO":999,"REV_AT_EPOCH":10741,"BSTAR":0.00075780658,"MEAN_MOTION_DOT":0.00001391,"MEAN_MOTION_DDOT":0},{"OBJECT_NAME":"UNKNOWN","OBJECT_ID":"","EPOCH":"2026-09-11T11:23:09.339360","MEAN_MOTION":14.39498409,"ECCENTRICITY":0.00534043,"INCLINATION":88.9646,"RA_OF_ASC_NODE":259.2472,"ARG_OF_PERICENTER":45.1672,"MEAN_ANOMALY":315.385,"EPHEMERIS_TYPE":0,"CLASSIFICATION_TYPE":"U","NORAD_CAT_ID":270399,"ELEMENT_SET_NO":999,"REV_AT_EPOCH":10976,"BSTAR":0.00014509306,"MEAN_MOTION_DOT":0.00000475,"MEAN_MOTION_DDOT":0},{"OBJECT_NAME":"UNKNOWN","OBJECT_ID":"","EPOCH":"2026-09-11T18:46:26.152896","MEAN_MOTION":14.54175686,"ECCENTRICITY":0.01176104,"INCLINATION":88.9937,"RA_OF_ASC_NODE":259.7109,"ARG_OF_PERICENTER":328.3291,"MEAN_ANOMALY":31.0876,"EPHEMERIS_TYPE":0,"CLASSIFICATION_TYPE":"U","NORAD_CAT_ID":270400,"ELEMENT_SET_NO":999,"REV_AT_EPOCH":11093,"BSTAR":0.000090606119,"MEAN_MOTION_DOT":0.00000437,"MEAN_MOTION_DDOT":0},{"OBJECT_NAME":"UNKNOWN","OBJECT_ID":"","EPOCH":"2026-09-11T11:56:22.586496","MEAN_MOTION":14.32987003,"ECCENTRICITY":0.00525427,"INCLINATION":89.0441,"RA_OF_ASC_NODE":267.7627,"ARG_OF_PERICENTER":304.0997,"MEAN_ANOMALY":55.522,"EPHEMERIS_TYPE":0,"CLASSIFICATION_TYPE":"U","NORAD_CAT_ID":270401,"ELEMENT_SET_NO":999,"REV_AT_EPOCH":10905,"BSTAR":0.00074046512,"MEAN_MOTION_DOT":0.0000207,"MEAN_MOTION_DDOT":0},{"OBJECT_NAME":"UNKNOWN","OBJECT_ID":"","EPOCH":"2026-09-11T23:15:35.651232","MEAN_MOTION":14.53422787,"ECCENTRICITY":0.01133445,"INCLINATION":89.0257,"RA_OF_ASC_NODE":262.948,"ARG_OF_PERICENTER":341.1656,"MEAN_ANOMALY":18.5373,"EPHEMERIS_TYPE":0,"CLASSIFICATION_TYPE":"U","NORAD_CAT_ID":270402,"ELEMENT_SET_NO":999,"REV_AT_EPOCH":11086,"BSTAR":0.00017781214,"MEAN_MOTION_DOT":0.00000823,"MEAN_MOTION_DDOT":0},{"OBJECT_NAME":"UNKNOWN","OBJECT_ID":"","EPOCH":"2026-09-11T12:18:12.863232","MEAN_MOTION":14.50171,"ECCENTRICITY":0.01178046,"INCLINATION":88.9437,"RA_OF_ASC_NODE":255.5481,"ARG_OF_PERICENTER":358.7387,"MEAN_ANOMALY":1.3504,"EPHEMERIS_TYPE":0,"CLASSIFICATION_TYPE":"U","NORAD_CAT_ID":270403,"ELEMENT_SET_NO":999,"REV_AT_EPOCH":11060,"BSTAR":0.000089859727,"MEAN_MOTION_DOT":0.00000399,"MEAN_MOTION_DDOT":0},{"OBJECT_NAME":"UNKNOWN","OBJECT_ID":"","EPOCH":"2026-09-11T18:01:57.117792","MEAN_MOTION":14.28067221,"ECCENTRICITY":0.00524033,"INCLINATION":88.8819,"RA_OF_ASC_NODE":253.3342,"ARG_OF_PERICENTER":148.6862,"MEAN_ANOMALY":211.7472,"EPHEMERIS_TYPE":0,"CLASSIFICATION_TYPE":"U","NORAD_CAT_ID":270404,"ELEMENT_SET_NO":999,"REV_AT_EPOCH":10887,"BSTAR":0.00012047762,"MEAN_MOTION_DOT":0.00000319,"MEAN_MOTION_DDOT":0},{"OBJECT_NAME":"UNKNOWN","OBJECT_ID":"","EPOCH":"2026-09-11T16:34:54.986016","MEAN_MOTION":14.17546507,"ECCENTRICITY":0.00607051,"INCLINATION":88.7558,"RA_OF_ASC_NODE":243.6044,"ARG_OF_PERICENTER":247.2861,"MEAN_ANOMALY":112.1904,"EPHEMERIS_TYPE":0,"CLASSIFICATION_TYPE":"U","NORAD_CAT_ID":270405,"ELEMENT_SET_NO":999,"REV_AT_EPOCH":10806,"BSTAR":0.00016102446,"MEAN_MOTION_DOT":0.00000347,"MEAN_MOTION_DDOT":0},{"OBJECT_NAME":"UNKNOWN","OBJECT_ID":"","EPOCH":"2026-09-11T11:12:25.975584","MEAN_MOTION":14.13533229,"ECCENTRICITY":0.00727994,"INCLINATION":88.9958,"RA_OF_ASC_NODE":265.8276,"ARG_OF_PERICENTER":292.4013,"MEAN_ANOMALY":66.9472,"EPHEMERIS_TYPE":0,"CLASSIFICATION_TYPE":"U","NORAD_CAT_ID":270406,"ELEMENT_SET_NO":999,"REV_AT_EPOCH":10751,"BSTAR":0.00022375165,"MEAN_MOTION_DOT":0.00000445,"MEAN_MOTION_DDOT":0},{"OBJECT_NAME":"UNKNOWN","OBJECT_ID":"","EPOCH":"2026-09-11T19:28:19.846848","MEAN_MOTION":14.11951562,"ECCENTRICITY":0.00815527,"INCLINATION":89.1965,"RA_OF_ASC_NODE":283.8504,"ARG_OF_PERICENTER":292.4687,"MEAN_ANOMALY":66.7877,"EPHEMERIS_TYPE":0,"CLASSIFICATION_TYPE":"U","NORAD_CAT_ID":270407,"ELEMENT_SET_NO":999,"REV_AT_EPOCH":10771,"BSTAR":0.00023790712,"MEAN_MOTION_DOT":0.00000461,"MEAN_MOTION_DDOT":0},{"OBJECT_NAME":"UNKNOWN","OBJECT_ID":"","EPOCH":"2026-09-11T13:37:15.246048","MEAN_MOTION":14.03348723,"ECCENTRICITY":0.01229745,"INCLINATION":89.1762,"RA_OF_ASC_NODE":282.9634,"ARG_OF_PERICENTER":313.5295,"MEAN_ANOMALY":45.5718,"EPHEMERIS_TYPE":0,"CLASSIFICATION_TYPE":"U","NORAD_CAT_ID":270408,"ELEMENT_SET_NO":999,"REV_AT_EPOCH":5775,"BSTAR":0.0000977074,"MEAN_MOTION_DOT":0.00000175,"MEAN_MOTION_DDOT":0},{"OBJECT_NAME":"UNKNOWN","OBJECT_ID":"","EPOCH":"2026-09-11T12:13:39.105696","MEAN_MOTION":14.25961416,"ECCENTRICITY":0.00207084,"INCLINATION":88.998,"RA_OF_ASC_NODE":264.3852,"ARG_OF_PERICENTER":233.1623,"MEAN_ANOMALY":126.7672,"EPHEMERIS_TYPE":0,"CLASSIFICATION_TYPE":"U","NORAD_CAT_ID":270409,"ELEMENT_SET_NO":999,"REV_AT_EPOCH":10822,"BSTAR":0.00025183421,"MEAN_MOTION_DOT":0.00000616,"MEAN_MOTION_DDOT":0},{"OBJECT_NAME":"UNKNOWN","OBJECT_ID":"","EPOCH":"2026-09-11T18:00:04.717440","MEAN_MOTION":14.36216355,"ECCENTRICITY":0.00377811,"INCLINATION":88.9468,"RA_OF_ASC_NODE":257.9832,"ARG_OF_PERICENTER":53.1474,"MEAN_ANOMALY":307.318,"EPHEMERIS_TYPE":0,"CLASSIFICATION_TYPE":"U","NORAD_CAT_ID":270410,"ELEMENT_SET_NO":999,"REV_AT_EPOCH":10893,"BSTAR":0.000085684426,"MEAN_MOTION_DOT":0.00000267,"MEAN_MOTION_DDOT":0},{"OBJECT_NAME":"UNKNOWN","OBJECT_ID":"","EPOCH":"2026-09-09T22:32:44.208384","MEAN_MOTION":14.28494219,"ECCENTRICITY":0.00177384,"INCLINATION":88.8718,"RA_OF_ASC_NODE":252.5089,"ARG_OF_PERICENTER":148.5614,"MEAN_ANOMALY":211.6645,"EPHEMERIS_TYPE":0,"CLASSIFICATION_TYPE":"U","NORAD_CAT_ID":270411,"ELEMENT_SET_NO":999,"REV_AT_EPOCH":10866,"BSTAR":0.000098951433,"MEAN_MOTION_DOT":0.00000263,"MEAN_MOTION_DDOT":0}]